User: anonymous   Login
Location: Joplin
(37.0842°N, 94.5131°W)
Time: 09:27:14
(UTC-05:00)
Language:

QB50P2 - Orbit

View from above orbital plane
View from above orbital plane
View from above satellite
View from above satellite

Ground track
Ground track

The orbit data is extracted from the following two-line orbital elements,

1 40032U 14033Y   19137.97191838  .00000256  00000-0  33628-4 0  9996
2 40032  97.8996  55.9201 0012364 153.4663 206.7189 14.88461049266524
Epoch (UTC): 17 May 2019 23:19:33
Eccentricity: 0.0012364
inclination: 97.8996°
perigee height: 594 km
apogee height: 611 km
right ascension of ascending node: 55.9201°
argument of perigee: 153.4663°
revolutions per day: 14.88461049
mean anomaly at epoch: 206.7189°
orbit number at epoch: 26652

The dashed part of the orbit path shows where the satellite is in the earth's shadow,  

DLR